Date,TemperatureHighF,TemperatureAvgF,TemperatureLowF,DewpointHighF,DewpointAvgF,DewpointLowF,HumidityHigh,HumidityAvg,HumidityLow,PressureMaxIn,PressureMinIn,WindSpeedMaxMPH,WindSpeedAvgMPH,GustSpeedMaxMPH,PrecipitationSumIn
2013-10-1,83.8,67.9,55.5,60.0,53.0,45.0,82,61,37,29.91,29.83,10,1,0,0.00
2013-10-2,77.7,66.5,60.2,60.0,56.7,54.0,82,72,50,29.95,29.84,8,1,0,0.00
2013-10-3,75.3,67.1,61.0,59.0,56.6,54.0,82,70,53,29.90,29.79,9,2,0,0.00
2013-10-4,86.8,72.5,56.4,57.0,37.2,25.0,88,39,11,30.03,29.86,16,4,0,0.00
2013-10-5,89.3,78.6,70.5,35.0,28.5,25.0,21,16,12,30.10,29.99,16,4,0,0.00
2013-10-6,92.7,76.0,58.2,39.0,31.5,25.0,36,21,10,30.05,29.91,9,1,0,0.00
2013-10-7,85.4,69.3,58.1,54.0,42.2,30.0,74,39,23,29.95,29.86,7,1,0,0.00
2013-10-8,73.9,62.4,51.4,57.0,51.5,44.0,82,68,54,29.90,29.79,9,2,0,0.00
2013-10-9,64.6,58.0,50.9,54.0,49.9,47.0,87,75,57,29.81,29.70,16,2,0,0.36
2013-10-10,69.5,56.9,46.9,50.0,47.1,44.0,89,72,43,30.00,29.78,5,1,0,0.00
2013-10-11,76.0,64.1,49.7,54.0,51.0,45.0,85,64,40,30.03,29.91,9,1,0,0.00
2013-10-12,75.6,61.7,48.9,57.0,51.6,45.0,88,71,46,29.95,29.86,7,1,0,0.00
2013-10-13,71.8,61.8,53.9,55.0,52.8,51.0,90,73,55,30.00,29.91,10,1,0,0.00
2013-10-14,85.6,68.2,51.9,54.0,44.8,35.0,88,52,19,30.00,29.86,13,1,0,0.00
2013-10-15,87.1,75.3,60.5,43.0,37.1,32.0,49,26,17,29.94,29.83,10,1,0,0.00
2013-10-16,85.9,72.8,60.4,40.0,33.4,30.0,43,25,14,30.03,29.93,12,1,0,0.00
2013-10-17,83.3,66.5,53.6,48.0,40.0,32.0,60,40,20,30.02,29.89,10,2,0,0.00
2013-10-18,85.6,66.7,52.6,55.0,46.6,41.0,68,51,24,29.99,29.89,9,1,0,0.00
2013-10-19,86.5,67.8,54.2,57.0,48.9,43.0,72,54,27,30.00,29.92,6,1,0,0.00
2013-10-20,79.2,62.1,49.0,58.0,50.6,43.0,84,68,40,29.96,29.86,12,1,0,0.00
2013-10-21,78.2,62.4,50.5,55.0,51.3,47.0,90,70,38,29.96,29.87,9,1,0,0.00
2013-10-22,77.0,61.4,50.6,59.0,53.7,47.0,90,77,51,29.98,29.86,6,1,0,0.00
2013-10-23,69.7,62.1,57.3,57.0,54.4,53.0,86,77,62,29.95,29.87,7,1,0,0.00
2013-10-24,69.6,62.1,58.4,55.0,53.7,53.0,82,74,58,30.03,29.93,5,0,0,0.00
2013-10-25,73.2,62.3,55.5,57.0,54.5,51.0,86,76,56,30.11,29.97,9,1,0,0.00
2013-10-26,76.5,63.0,50.9,60.0,54.6,48.0,90,75,55,30.07,29.94,6,1,0,0.00
2013-10-27,74.2,60.6,51.7,59.0,54.3,49.0,91,80,58,29.96,29.79,9,2,0,0.00
2013-10-28,63.9,59.2,54.8,54.0,50.8,47.0,84,74,58,29.92,29.79,14,3,0,0.02
2013-10-29,66.2,57.0,48.7,50.0,47.7,45.0,88,72,50,29.99,29.91,10,1,0,0.01
2013-10-30,71.9,58.6,47.9,49.0,46.8,44.0,90,68,39,30.05,29.95,5,0,0,0.00
2013-10-31,81.7,61.5,48.3,49.0,43.2,34.0,79,57,18,30.07,29.95,7,1,0,0.00